This is the latest recevied weather packets stored in our database for station/object OE6ATD-13. If no packets are shown the sender has not sent any weather packets the latest 1 day(s).
| Time | Temp. | Humidity | Pressure | Rain* | Wind** | Luminosity | Snow |
|---|---|---|---|---|---|---|---|
| 1778021720 | 15.56° C | 69% | 1008.6 hPa | 0 mm | 0.89 m/s, 183° | 0 W/m² | - |
| 1778021117 | 15.56° C | 69% | 1008.6 hPa | 0 mm | 0.45 m/s, 205° | 0 W/m² | - |
| 1778020527 | 15.56° C | 69% | 1008.5 hPa | 0 mm | 0 m/s | 0 W/m² | - |
| 1778019923 | 15.56° C | 69% | 1008.6 hPa | 0 mm | 1.34 m/s, 217° | 0 W/m² | - |
| 1778019319 | 15.56° C | 70% | 1008.6 hPa | 0 mm | 1.34 m/s, 228° | 0 W/m² | - |
| 1778018730 | 15° C | 70% | 1008.6 hPa | 0 mm | 1.34 m/s, 219° | 0 W/m² | - |
| 1778018126 | 15° C | 70% | 1008.5 hPa | 0 mm | 0.89 m/s, 223° | 0 W/m² | - |
| 1778017521 | 15° C | 70% | 1008.9 hPa | 0 mm | 0.45 m/s, 253° | 0 W/m² | - |
| 1778016917 | 15.56° C | 70% | 1008.8 hPa | 0 mm | 0.45 m/s, 152° | 0 W/m² | - |
| 1778016328 | 15.56° C | 70% | 1008.8 hPa | 0 mm | 0.45 m/s, 242° | 0 W/m² | - |
| 1778015724 | 15.56° C | 70% | 1008.8 hPa | 0 mm | 0.45 m/s, 167° | 0 W/m² | - |
| 1778015126 | 15.56° C | 70% | 1008.8 hPa | 0 mm | 0 m/s | 0 W/m² | - |
| 1778014521 | 15° C | 70% | 1008.9 hPa | 0 mm | 0 m/s | 0 W/m² | - |
| 1778013917 | 15.56° C | 69% | 1009.1 hPa | 0 mm | 0 m/s | 0 W/m² | - |
| 1778013328 | 15° C | 70% | 1009.2 hPa | 0 mm | 0.45 m/s, 227° | 0 W/m² | - |
| 1778012724 | 15.56° C | 70% | 1009.2 hPa | 0 mm | 0 m/s | 0 W/m² | - |
| 1778012120 | 15.56° C | 69% | 1009.3 hPa | 0 mm | 0 m/s | 0 W/m² | - |
| 1778011515 | 15.56° C | 68% | 1009.2 hPa | 0 mm | 0 m/s | 0 W/m² | - |
| 1778010926 | 15.56° C | 67% | 1009.2 hPa | 0 mm | 0 m/s | 0 W/m² | - |
| 1778009717 | 16.11° C | 65% | 1009.1 hPa | 0 mm | 0.89 m/s, 218° | 0 W/m² | - |
| 1778009128 | 16.11° C | 64% | 1009.2 hPa | 0 mm | 0 m/s | 0 W/m² | - |
| 1778008524 | 16.11° C | 64% | 1009.2 hPa | 0 mm | 0.45 m/s, 211° | 0 W/m² | - |
| 1778007920 | 16.67° C | 63% | 1009.2 hPa | 0 mm | 0.45 m/s, 207° | 0 W/m² | - |
| 1778007315 | 16.67° C | 63% | 1009.3 hPa | 0 mm | 1.34 m/s, 212° | 0 W/m² | - |
| 1778006726 | 16.67° C | 62% | 1009.2 hPa | 0 mm | 1.34 m/s, 221° | 0 W/m² | - |
* Rain latest hour (hover to see other rain measurements)
** Current wind speed in m/s (hover to see current wind gust speed)